Flag for Greece Weather past 2 weeks in Alexandroupoli, Greece

Now
57 °F

Sunny.


Feels Like: 57 °F
Forecast: 49 / 63 °F
Wind: 5 mph from Southwest

Location: Alexandroupoli Airport

Current Time: Mar 31, 2015 at 8:29:48 PM

Latest Report: Mar 31, 2015 at 7:50 PM


Visibility: 10 mi

Pressure: 29.77 "Hg

Humidity: 72%

Dew point: 48 °F

Location of AlexandroupoliLocation

Historic Weather in Alexandroupoli — Graph

°F

Alexandroupoli temperature yesterday

Maximum temperature yesterday: 61 °F (at 1:50 PM)
Minimum temperature yesterday: 52 °F (at 6:50 AM)
Average temperature yesterday: 58 °F

Past Weeks' High & Low Weather Summary

 TemperatureHumidityPressure
High61 °F (Mar 26, 12:20 PM)100% (Mar 27, 7:50 AM)30.48 "Hg (Mar 27, 7:50 AM)
Low30 °F (Mar 18, 7:20 AM)21% (Mar 17, 12:50 PM)29.59 "Hg (Mar 28, 6:20 AM)
Average50 °F70%30.04 "Hg
* Reported Mar 16 5:20 PM — Mar 31 6:50 PM, Alexandroupoli, Weather by CustomWeather, © 2015

Note: Actual official high and low records may vary slightly from our data, if they occured in-between our weather recording intervals... More about our weather records

Advertising

Alexandroupoli weather history for previous 24 hours

 ConditionsComfort  
Time TempWeatherWind HumidityBarometerVisibility
6:50 PM
Tue, Mar 31
59 °FScattered clouds.8 mph68%29.80 "HgN/A
6:20 PM61 °FScattered clouds.9 mph63%29.80 "HgN/A
5:50 PM61 °FScattered clouds.12 mph63%29.80 "HgN/A
5:20 PM61 °FPassing clouds.14 mph77%29.80 "HgN/A
4:50 PM61 °FPassing clouds.10 mph77%29.80 "HgN/A
4:20 PM59 °FPassing clouds.9 mph68%29.80 "HgN/A
3:50 PM59 °FPassing clouds.9 mph68%29.80 "HgN/A
3:20 PM57 °FScattered clouds.8 mph77%29.80 "HgN/A
2:50 PM57 °FScattered clouds.9 mph77%29.80 "HgN/A
2:20 PM59 °FScattered clouds.8 mph72%29.80 "HgN/A
1:50 PM59 °FScattered clouds.8 mph72%29.80 "HgN/A
1:20 PM59 °FScattered clouds.10 mph68%29.83 "HgN/A
12:50 PM59 °FScattered clouds.5 mph68%29.83 "HgN/A
12:20 PM57 °FScattered clouds.6 mph77%29.80 "HgN/A
11:50 AM55 °FScattered clouds.6 mph82%29.80 "HgN/A
11:20 AM55 °FPartly sunny.5 mph88%29.80 "HgN/A
10:50 AM55 °FPartly sunny.7 mph88%29.80 "HgN/A
10:20 AM55 °FDrizzle. Partly sunny.3 mph94%29.77 "Hg5 mi
9:50 AM55 °FDrizzle. Partly sunny.2 mph94%29.77 "Hg5 mi
9:20 AM54 °FDrizzle. Partly sunny.2 mph94%29.74 "Hg5 mi
8:50 AM54 °FLight rain. Partly sunny.3 mph94%29.74 "Hg5 mi
8:20 AM52 °FLight rain. Partly sunny.2 mph94%29.71 "Hg5 mi
7:50 AM52 °FLight rain. Passing clouds.2 mph94%29.71 "Hg5 mi
6:50 AM52 °FLight rain. Passing clouds.No wind94%29.68 "HgN/A
3:50 AM54 °FPartly cloudy.5 mph94%29.68 "HgN/A
3:20 AM55 °FPassing clouds.6 mph88%29.68 "HgN/A
2:50 AM55 °FPartly cloudy.5 mph88%29.68 "HgN/A
1:50 AM55 °FPartly cloudy.5 mph88%29.68 "HgN/A
1:20 AM55 °FPartly cloudy.3 mph94%29.68 "HgN/A
12:50 AM55 °FPartly cloudy.3 mph94%29.68 "HgN/A
12:20 AM55 °FPartly cloudy.5 mph94%29.71 "HgN/A
11:50 PM
Mon, Mar 30
55 °FPartly cloudy.5 mph94%29.71 "HgN/A
11:20 PM55 °FPartly cloudy.No wind88%29.71 "HgN/A
10:50 PM55 °FPassing clouds.No wind88%29.71 "HgN/A
10:20 PM57 °FPartly cloudy.5 mph82%29.71 "HgN/A
9:50 PM57 °FPassing clouds.5 mph82%29.71 "HgN/A
9:20 PM57 °FPassing clouds.6 mph82%29.71 "HgN/A
8:50 PM57 °FPassing clouds.6 mph82%29.71 "HgN/A
8:20 PM57 °FScattered clouds.3 mph82%29.71 "HgN/A
Weather by CustomWeather, © 2015

See weather overviewHow to use our weather pages